Location: Unspecified
(0.0000°N, 0.0000°E)
Time: 18:48:08
(UTC+00:00)

S-56A Canister/Altair - Pass Details

Date: 27 November 2019
Orbit: 633 x 2499 km, 38.9° (Epoch: 06 December)

Event Time Altitude Azimuth Distance (km) Brightness Sun altitude
Rises 12:43:25 0° 253° (WSW) 6,042 12.4 64.9°
Reaches altitude 10° 12:47:54 10° 261° (W) 5,126 12.1 64.2°
Maximum altitude 13:00:43 34° 320° (NW) 3,496 11.3 62.3°
Drops below altitude 10° 13:12:18 10° 19° (NNE) 4,590 11.3 60.4°
Sets 13:16:08 0° 29° (NNE) 5,353 11.5 59.8°
